sat.trackr.live / text

‹ back to catalog

BEIDOU-3 IGSO-1 (C38)

NORAD 44204 · 2019-023A

PAYLOAD ACTIVE UNKNOWN

§ Identity

Operator
Country
PRC
Launch date
2019-04-20
Launch site
XICLF
Launch vehicle
Mass (kg)
RCS (m²)

Purposes: comms, nav

External: N2YO · Heavens-Above · Gunter

§ Orbital elements

Epoch: 2026-09-19T18:21:00.023904Z

Period
1,436.20 min
Inclination
58.8307°
Eccentricity
0.0027935
Mean motion
1.00264640 rev/d
Perigee alt
35,670.8 km
Apogee alt
35,906.4 km
Semi-major
42,166.7 km
B*
0.0000e+0
RAAN
36.6835°
Arg perigee
223.2345°
Mean anomaly
132.5629°
Rev number
815

§ Raw data

BEIDOU-3 IGSO-1 (C38)1 44204U 19023A   26262.76458361 -.00000194  00000+0  00000+0 0  99902 44204  58.8307  36.6835 0027935 223.2345 132.5629  1.00264640  8150

JSON: /api/v1/satellites/44204 · /tle

For live sub-satellite position, see the globe view (requires WebGL).

§ Visibility from observer

Set your observer location to see the next 7 days of passes ≥ 10°. The values pass through the URL so the page stays shareable.

No JS? Fill the form by hand. The geolocation button needs JavaScript.